Weather History for KVTA - October, 2013

Change the Weather History Date:

Tuesday, October 8, 2013

  Actual Average Record
Temperature  
Mean Temperature 54 °F -  
Max Temperature 68 °F 66 °F 91 °F (2007)
Min Temperature 39 °F 42 °F 23 °F (1952)
Degree Days  
Heating Degree Days 12    
Growing Degree Days 4 (Base 50)    
Moisture  
Dew Point 42 °F    
Average Humidity 88    
Maximum Humidity 100    
Minimum Humidity 40    
Precipitation  
Precipitation 0.00 in - - ()
Sea Level Pressure  
Sea Level Pressure 30.22 in    
Wind  
Wind Speed 1 mph (East)    
Max Wind Speed 8 mph    
Max Gust Speed -    
Visibility 4 miles    
Events Fog    
Averages and records for this station are not official NWS values.
T = Trace of Precipitation, MM = Missing Value Source: NWS Daily Summary

Daily Weather History Graph

Daily Weather History Graph

Search for Another Location

Airport or City:

Trip Planner

Search our weather history database for the weather conditions in past years. The results will help you decide how hot, cold, wet, or windy it might be!

Date:

Astronomy

Oct. 08, 2013 Rise Set
Actual Time 7:33 AM EDT 7:00 PM EDT
Civil Twilight 7:06 AM EDT 7:27 PM EDT
Nautical Twilight 6:34 AM EDT 7:58 PM EDT
Astronomical Twilight 6:03 AM EDT 8:30 PM EDT
Moon 11:26 AM EDT (10/8) 9:36 PM EDT (10/8)
Length of Visible Light 12h 21m
Length of Day
11h 27m
Waxing Crescent, 16% of the Moon is Illuminated
Oct 8
Waxing Crescent
Oct 11
First Quarter
Oct 18
Full
Oct 26
Last Quarter
Nov 3
New

Hourly Weather History & Observations

Time (EDT) Temp. Dew Point Humidity Pressure Visibility Wind Dir Wind Speed Gust Speed Precip Events Conditions
12:06 AM 46.4 °F 44.6 °F 93% 30.17 in 1.8 mi Calm Calm - N/A   Clear
12:26 AM 44.6 °F 44.6 °F 100% 30.17 in 3.0 mi Calm Calm - N/A   Clear
12:54 AM 45.0 °F 44.1 °F 97% 30.17 in 10.0 mi Calm Calm - N/A   Clear
1:54 AM 42.1 °F 42.1 °F 100% 30.19 in 2.5 mi Calm Calm - N/A   Clear
2:07 AM 42.8 °F 41.0 °F 93% 30.18 in 4.0 mi Calm Calm - N/A   Clear
2:34 AM 42.8 °F 42.8 °F 100% 30.18 in 2.5 mi Calm Calm - N/A   Clear
2:41 AM 42.8 °F 42.8 °F 100% 30.19 in 3.0 mi Calm Calm - N/A   Clear
2:44 AM 42.8 °F 42.8 °F 100% 30.19 in 1.5 mi Calm Calm - N/A   Clear
2:52 AM 42.8 °F 42.8 °F 100% 30.19 in 0.5 mi Calm Calm - N/A Fog Fog
2:54 AM 42.1 °F 41.0 °F 96% 30.19 in 0.5 mi Calm Calm - N/A Fog Fog
3:13 AM 41.0 °F 41.0 °F 100% 30.18 in 1.0 mi Calm Calm - N/A   Mist
3:18 AM 42.8 °F 41.0 °F 93% 30.18 in 2.5 mi Calm Calm - N/A   Partly Cloudy
3:25 AM 41.0 °F 41.0 °F 100% 30.18 in 3.0 mi Calm Calm - N/A   Clear
3:30 AM 42.8 °F 41.0 °F 93% 30.18 in 2.0 mi Calm Calm - N/A   Partly Cloudy
3:37 AM 42.8 °F 42.8 °F 100% 30.18 in 1.8 mi Calm Calm - N/A   Partly Cloudy
3:42 AM 42.8 °F 42.8 °F 100% 30.18 in 4.0 mi Calm Calm - N/A   Partly Cloudy
3:48 AM 42.8 °F 42.8 °F 100% 30.18 in 1.8 mi Calm Calm - N/A   Partly Cloudy
3:54 AM 42.1 °F 41.0 °F 96% 30.19 in 1.5 mi Calm Calm - N/A   Partly Cloudy
3:58 AM 42.8 °F 42.8 °F 100% 30.18 in 3.0 mi Calm Calm - N/A   Partly Cloudy
4:54 AM 41.0 °F 39.9 °F 96% 30.20 in 3.0 mi Calm Calm - N/A   Clear
4:58 AM 41.0 °F 41.0 °F 100% 30.20 in 1.8 mi Calm Calm - N/A   Clear
5:07 AM 41.0 °F 41.0 °F 100% 30.20 in 0.5 mi Calm Calm - N/A Fog Fog
5:15 AM 39.2 °F 39.2 °F 100% 30.20 in 0.2 mi Calm Calm - N/A Fog Fog
5:33 AM 41.0 °F 39.2 °F 93% 30.20 in 0.5 mi Calm Calm - N/A Fog Fog
5:43 AM 41.0 °F 39.2 °F 93% 30.20 in 1.2 mi Calm Calm - N/A   Partly Cloudy
5:46 AM 41.0 °F 41.0 °F 100% 30.21 in 3.0 mi Calm Calm - N/A   Clear
5:49 AM 41.0 °F 39.2 °F 93% 30.21 in 1.8 mi Calm Calm - N/A   Clear
5:54 AM 41.0 °F 39.9 °F 96% 30.22 in 1.5 mi Calm Calm - N/A   Clear
5:59 AM 39.2 °F 39.2 °F 100% 30.21 in 4.0 mi Calm Calm - N/A   Clear
6:13 AM 39.2 °F 39.2 °F 100% 30.22 in 0.8 mi Calm Calm - N/A   Clear
6:25 AM 39.2 °F 39.2 °F 100% 30.23 in 0.5 mi Calm Calm - N/A Fog Fog
6:42 AM 39.2 °F 39.2 °F 100% 30.23 in 0.2 mi Calm Calm - N/A Fog Fog
6:54 AM 39.0 °F 39.0 °F 100% 30.25 in 0.8 mi Calm Calm - N/A   Mist
6:58 AM 39.2 °F 39.2 °F 100% 30.24 in 1.2 mi Calm Calm - N/A   Scattered Clouds
7:01 AM 39.2 °F 37.4 °F 93% 30.24 in 4.0 mi Calm Calm - N/A   Scattered Clouds
7:37 AM 39.2 °F 37.4 °F 93% 30.25 in 1.8 mi Calm Calm - N/A   Clear
7:45 AM 39.2 °F 37.4 °F 93% 30.26 in 0.2 mi Calm Calm - N/A Fog Fog
7:54 AM 39.0 °F 37.0 °F 93% 30.27 in 0.5 mi Calm Calm - N/A Fog Fog
7:57 AM 39.2 °F 37.4 °F 93% 30.26 in 2.5 mi Calm Calm - N/A   Clear
8:04 AM 39.2 °F 37.4 °F 93% 30.27 in 6.0 mi Calm Calm - N/A   Clear
8:54 AM 46.0 °F 45.0 °F 96% 30.29 in 9.0 mi Calm Calm - N/A   Clear
9:54 AM 53.1 °F 46.9 °F 80% 30.30 in 10.0 mi NE 3.5 mph - N/A   Clear
10:54 AM 59.0 °F 46.0 °F 62% 30.30 in 10.0 mi Variable 4.6 mph - N/A   Clear
11:54 AM 63.0 °F 44.1 °F 50% 30.30 in 10.0 mi East 6.9 mph - N/A   Clear
12:54 PM 64.9 °F 43.0 °F 45% 30.29 in 10.0 mi Variable 4.6 mph - N/A   Clear
1:54 PM 66.0 °F 42.1 °F 42% 30.27 in 10.0 mi Variable 4.6 mph - N/A   Clear
2:54 PM 66.9 °F 43.0 °F 42% 30.25 in 10.0 mi Variable 4.6 mph - N/A   Clear
3:54 PM 66.0 °F 43.0 °F 43% 30.25 in 10.0 mi Variable 5.8 mph - N/A   Clear
4:54 PM 68.0 °F 43.0 °F 40% 30.24 in 10.0 mi East 8.1 mph - N/A   Clear
5:54 PM 66.0 °F 42.1 °F 42% 30.24 in 10.0 mi ENE 5.8 mph - N/A   Clear
6:54 PM 61.0 °F 44.1 °F 54% 30.25 in 10.0 mi East 4.6 mph - N/A   Clear
7:54 PM 53.1 °F 46.0 °F 77% 30.25 in 10.0 mi Calm Calm - N/A   Clear
8:54 PM 48.9 °F 46.0 °F 90% 30.26 in 10.0 mi Calm Calm - N/A   Clear
9:54 PM 48.9 °F 46.0 °F 90% 30.27 in 10.0 mi Calm Calm - N/A   Clear
10:54 PM 46.9 °F 45.0 °F 93% 30.27 in 2.5 mi Calm Calm - N/A   Clear
11:01 PM 46.4 °F 44.6 °F 93% 30.27 in 9.0 mi Calm Calm - N/A   Clear
11:54 PM 46.0 °F 44.1 °F 93% 30.27 in 5.0 mi Calm Calm - N/A   Clear